Regional Weather Roundup
Issued by NWS

Home | Current Version | Previous Version | Graphics & Text | Print | Product List | Glossary On
Versions: 1 2 3 4 5 6 7 8 9 10 11 12 13 14 15 16 17 18 19 20 21 22 23 24 25 26 27 28 29 30 31 32 33 34 35 36 37 38 39 40 41 42 43 44 45 46 47 48 49 50
000
ASUS43 KBIS 220220
RWRND

NORTH DAKOTA REGIONAL WEATHER ROUNDUP
NATIONAL WEATHER SERVICE BISMARCK ND
900 PM CDT THU AUG 21 2014

NOTE: "FAIR" INDICATES FEW OR NO CLOUDS BELOW 12,000 FEET WITH NO
SIGNIFICANT WEATHER AND/OR OBSTRUCTIONS TO VISIBILITY.


NDZ001>003-009>011-017-220300-
NORTHWEST NORTH DAKOTA

CITY           SKY/WX    TMP DP  RH WIND       PRES   REMARKS
WILLISTON      PTCLDY    69  57  65 NE7       29.99R
MINOT          MOCLDY    67  61  81 N10       29.95R
MINOT AFB      MOCLDY    68  64  88 N12       29.96R
$$

NDZ018>021-031>035-040>046-220300-
SOUTHWEST NORTH DAKOTA

CITY           SKY/WX    TMP DP  RH WIND       PRES   REMARKS
BISMARCK       CLEAR     73  61  65 N5        29.94R
DICKINSON      CLOUDY    67  59  75 N7        29.97R
GARRISON         N/A     70  64  81 N7        29.94R
HETTINGER ARPT PTCLDY    68  60  75 NE6       29.97R
$$

NDZ004>008-012>016-024-026-027-054-220300-
NORTHEAST NORTH DAKOTA

CITY           SKY/WX    TMP DP  RH WIND       PRES   REMARKS
GRAND FORKS    MOCLDY    72  70  93 N3        29.85R
GRND FRKS AFB  MOCLDY    70  70 100 E2        29.86S
DEVILS LAKE    PTCLDY    66  61  82 N7        29.90R
$$

NDZ022-023-025-028>030-036>039-047>053-220300-
SOUTHEAST NORTH DAKOTA

CITY           SKY/WX    TMP DP  RH WIND       PRES   REMARKS
FARGO          CLEAR     73  68  84 CALM      29.86R
JAMESTOWN      PTCLDY    71  67  87 N5        29.90R
$$




USA.gov is the U.S. government's official web portal to all federal, state and local government web resources and services.